BLOCK DM-SL DEB, 45041

Orbit data source: Space-Track

BLOCK DM-SL DEB, 45041 is space debris in GEO originally from a launch on Tue, 24 Dec 2019 UTC launched from the Tyuratam Missile And Space Complex (TTMTR). Debris objects in space refer to the collection of defunct objects orbiting the Earth. Examples of debris include non-operational satellites, rocket bodies, and fragments generated from explosions, collisions, or faulty payload assembly.

Not visible in the next 10 days
Identifier
45041, 2019-095C
Orbit
GEO
Last TLE update
2 days ago
Origin
Manufacturer
RKKE
Mission
Spacecraft
Bus & Motor
SOZ, Unknown motor
Mass
56 kg wet, 56 kg dry
Launch date (UTC)
2019-12-24 (6 years ago)
Launch vehicle
Unknown
Launch site
Tyuratam Missile And Space Complex (TTMTR)
Object type
Payload
Rocket body
Debris
Shape & HBR
Cyl, 1.1 m
Radar Cross Section
0.660 m²

Expand to show TLE details & history

TLE from 2 days ago
0 BLOCK DM-SL DEB
1 45041U 19095C   25186.41247323 -.00000006  00000-0  00000-0 0  9993
2 45041   4.4965  77.8715 0442426  18.3498 343.0098  1.03023692 20762
Epoch: 2025-07-05T09:53Z
TLE epoch observation values (Epoch: 2025-07-05T09:53:57.687Z)
Latitude
-0°
Longitude
5.52351°
Altitude
33,279.722 km
Speed
3.237 km/s
True Right ascension
05h 10m 39s
True Declination
0° 00' 00"
Sunlit
Object was in daylight at epoch
Visualization orbit readout
Latitude
-1.84732°
Longitude
-150.42313°
Altitude
36,863.15 km
Speed
2.968 km/s
Apparent Right ascension
19h 06m 20s
Apparent Declination
-6° 43' 41"
Sunlit
Object is in daylight
Visualization observer readout
Local Sidereal Time
10:20:07
Azimuth
65.877° ENE
Elevation
-35.479°
Doppler factor
1
Orbital elements
Apogee altitude
36,865.597 km
Perigee altitude
33,201.286 km
Semi-major axis
41,411.578 km
Eccentricity
0.04424
Inclination
4.4965°
RAAN
77.8715°
Arg. of periapsis
18.3498°
True anomaly
Unknown
Mean anomaly
343.0098°
Eccentric anomaly
Unknown
Mean motion
0.25755 °/min
Orbital period
1,397.79 mins
BSTAR
0
Loading historical data...
45041 neighbors
Loading maneuver chart data...
Loading SW <> Apogee altitude chart data...
Loading historical data...
Loading historical data...
Loading historical data...
Loading historical data...
Loading historical data...
Loading historical data...
Loading historical data...
Other satellites on launch #95 in the year 2019 (2019-12-24 UTC)

BLOCK DM-SL DEB Visibility

Observer location: undefined°, undefined°

BLOCK DM-SL DEB is likely not visible in the next few days
Span
Click to sort rows by Start time (UTC) header in descending order
Start Az.
Max El. time (UTC)
Max El. Az.
Max El.
End time (UTC)
End Az.
|